| time (UTC) | temp F | wind direction | speed MPH | gust MPH | rain 1hr in | rain 24hr in | rain mn in | humidity % | barometer mb |
| 20260502213703 | 44 | 211 | 0.0 | 1.0 | 0.00 | 0.00 | 0.00 | 70 | 1018.8 |
| 20260502212702 | 46 | 231 | 0.0 | 0.0 | 0.00 | 0.00 | 0.00 | 67 | 1018.7 |
| 20260502211702 | 46 | 229 | 0.0 | 0.0 | 0.00 | 0.00 | 0.00 | 67 | 1018.8 |
| 20260502210701 | 46 | 228 | 0.0 | 0.0 | 0.00 | 0.00 | 0.00 | 67 | 1018.9 |
| 20260502205701 | 48 | 229 | 0.0 | 0.0 | 0.00 | 0.00 | 0.00 | 66 | 1018.9 |
| 20260502204700 | 48 | 225 | 0.0 | 0.0 | 0.00 | 0.00 | 0.00 | 61 | 1018.9 |
| 20260502203700 | 49 | 224 | 0.0 | 0.0 | 0.00 | 0.00 | 0.00 | 60 | 1019.0 |
| 20260502202659 | 49 | 225 | 0.0 | 0.0 | 0.00 | 0.00 | 0.00 | 61 | 1019.0 |
| 20260502201659 | 51 | 227 | 0.0 | 0.0 | 0.00 | 0.00 | 0.00 | 58 | 1019.1 |
| 20260502200658 | 51 | 228 | 0.0 | 0.0 | 0.00 | 0.00 | 0.00 | 55 | 1019.1 |
| 20260502195658 | 52 | 224 | 0.0 | 0.0 | 0.00 | 0.00 | 0.00 | 55 | 1019.1 |
| 20260502194657 | 53 | 223 | 0.0 | 0.0 | 0.00 | 0.00 | 0.00 | 53 | 1019.1 |
| 20260502193657 | 54 | 229 | 0.0 | 0.0 | 0.00 | 0.00 | 0.00 | 50 | 1019.3 |
| 20260502192656 | 55 | 229 | 0.0 | 0.0 | 0.00 | 0.00 | 0.00 | 49 | 1019.2 |
| 20260502191656 | 57 | 232 | 1.0 | 1.0 | 0.00 | 0.00 | 0.00 | 47 | 1019.1 |
| 20260502190655 | 56 | 224 | 0.0 | 0.0 | 0.00 | 0.00 | 0.00 | 48 | 1019.0 |
| 20260502185654 | 58 | 228 | 0.0 | 0.0 | 0.00 | 0.00 | 0.00 | 45 | 1019.0 |
| 20260502184654 | 60 | 217 | 0.0 | 1.0 | 0.00 | 0.00 | 0.00 | 41 | 1019.0 |
| 20260502183653 | 60 | 221 | 0.0 | 1.0 | 0.00 | 0.00 | 0.00 | 41 | 1019.1 |
| 20260502182653 | 62 | 178 | 1.0 | 2.0 | 0.00 | 0.00 | 0.00 | 39 | 1018.9 |
| 20260502181652 | 62 | 202 | 0.0 | 1.0 | 0.00 | 0.00 | 0.00 | 39 | 1018.9 |
| 20260502180652 | 64 | 207 | 0.0 | 1.0 | 0.00 | 0.00 | 0.00 | 38 | 1018.7 |
| 20260502163647 | 73 | 214 | 1.0 | 2.0 | 0.00 | 0.00 | 0.00 | 26 | 1019.2 |
| 20260502161646 | 73 | 292 | 2.0 | 3.0 | 0.00 | 0.00 | 0.00 | 24 | 1019.3 |
| 20260502160646 | 74 | 177 | 4.0 | 4.0 | 0.00 | 0.00 | 0.00 | 24 | 1019.5 |
| 20260502151643 | 75 | 204 | 2.0 | 4.0 | 0.00 | 0.00 | 0.00 | 24 | 1019.7 |
| 20260502150643 | 75 | 178 | 3.0 | 4.0 | 0.00 | 0.00 | 0.00 | 24 | 1020.1 |
| 20260502130637 | 74 | 131 | 1.0 | 3.0 | 0.00 | 0.00 | 0.00 | 24 | 1021.1 |
| 20260502123635 | 74 | 216 | 2.0 | 3.0 | 0.00 | 0.00 | 0.00 | 26 | 1021.7 |
| 20260502122635 | 73 | 232 | 1.0 | 2.0 | 0.00 | 0.00 | 0.00 | 28 | 1021.7 |
| 20260502121634 | 72 | 244 | 1.0 | 2.0 | 0.00 | 0.00 | 0.00 | 27 | 1021.7 |
| 20260502120634 | 73 | 237 | 2.0 | 3.0 | 0.00 | 0.00 | 0.00 | 24 | 1021.7 |
| 20260502115633 | 73 | 151 | 4.0 | 6.0 | 0.00 | 0.00 | 0.00 | 25 | 1021.9 |
| 20260502113632 | 74 | 246 | 2.0 | 3.0 | 0.00 | 0.00 | 0.00 | 28 | 1022.2 |
| 20260502112632 | 72 | 213 | 2.0 | 3.0 | 0.00 | 0.00 | 0.00 | 27 | 1022.3 |
| 20260502111631 | 71 | 217 | 2.0 | 2.0 | 0.00 | 0.00 | 0.00 | 26 | 1022.6 |
| 20260502110631 | 73 | 230 | 1.0 | 2.0 | 0.00 | 0.00 | 0.00 | 26 | 1022.6 |
| 20260502105630 | 71 | 249 | 1.0 | 2.0 | 0.00 | 0.00 | 0.00 | 32 | 1022.8 |
| 20260502104630 | 71 | 143 | 1.0 | 4.0 | 0.00 | 0.00 | 0.00 | 30 | 1022.8 |
| 20260502103629 | 70 | 245 | 1.0 | 2.0 | 0.00 | 0.00 | 0.00 | 28 | 1022.8 |
| 20260502102629 | 71 | 197 | 1.0 | 2.0 | 0.00 | 0.00 | 0.00 | 28 | 1022.9 |
| 20260502100628 | 70 | 205 | 3.0 | 4.0 | 0.00 | 0.00 | 0.00 | 29 | 1023.3 |
| 20260502090625 | 68 | 230 | 2.0 | 3.0 | 0.00 | 0.00 | 0.00 | 34 | 1023.9 |
| 20260502070618 | 58 | 219 | 0.0 | 0.0 | 0.00 | 0.00 | 0.00 | 52 | 1024.6 |
| 20260502065618 | 57 | 218 | 1.0 | 1.0 | 0.00 | 0.00 | 0.00 | 52 | 1024.7 |
| 20260502064617 | 54 | 237 | 0.0 | 1.0 | 0.00 | 0.00 | 0.00 | 58 | 1024.8 |
| 20260502063617 | 54 | 210 | 0.0 | 1.0 | 0.00 | 0.00 | 0.00 | 58 | 1024.6 |
| 20260502062616 | 51 | 226 | 0.0 | 0.0 | 0.00 | 0.00 | 0.00 | 61 | 1024.6 |
| 20260502061616 | 50 | 205 | 1.0 | 2.0 | 0.00 | 0.00 | 0.00 | 62 | 1024.8 |
| 20260502060615 | 51 | 227 | 0.0 | 0.0 | 0.00 | 0.00 | 0.00 | 62 | 1024.7 |
| 20260502055615 | 48 | 219 | 0.0 | 0.0 | 0.00 | 0.00 | 0.00 | 66 | 1024.8 |
| 20260502054614 | 47 | 222 | 0.0 | 0.0 | 0.00 | 0.00 | 0.00 | 67 | 1024.8 |
| 20260502053614 | 45 | 218 | 0.0 | 0.0 | 0.00 | 0.00 | 0.00 | 69 | 1024.7 |
| 20260502052613 | 43 | 223 | 0.0 | 0.0 | 0.00 | 0.00 | 0.00 | 74 | 1024.6 |
| 20260502051613 | 42 | 218 | 0.0 | 1.0 | 0.00 | 0.00 | 0.00 | 77 | 1024.7 |
| 20260502050612 | 41 | 230 | 0.0 | 0.0 | 0.00 | 0.00 | 0.00 | 82 | 1024.8 |
| 20260502045612 | 37 | 231 | 0.0 | 0.0 | 0.00 | 0.00 | 0.00 | 83 | 1024.9 |
| 20260502044611 | 35 | 223 | 0.0 | 1.0 | 0.00 | 0.00 | 0.00 | 84 | 1024.6 |
| 20260502043611 | 34 | 222 | 0.0 | 0.0 | 0.00 | 0.00 | 0.00 | 84 | 1024.5 |
| 20260502042611 | 34 | 222 | 0.0 | 0.0 | 0.00 | 0.00 | 0.00 | 83 | 1024.7 |
| 20260502041610 | 33 | 222 | 0.0 | 0.0 | 0.00 | 0.00 | 0.00 | 83 | 1024.6 |
| 20260502040609 | 33 | 222 | 0.0 | 0.0 | 0.00 | 0.00 | 0.00 | 83 | 1024.6 |
| 20260502035609 | 33 | 223 | 0.0 | 0.0 | 0.00 | 0.00 | 0.00 | 83 | 1024.7 |
| 20260502034608 | 33 | 223 | 0.0 | 0.0 | 0.00 | 0.00 | 0.00 | 83 | 1024.6 |
| 20260502033608 | 34 | 223 | 0.0 | 0.0 | 0.00 | 0.00 | 0.00 | 83 | 1024.6 |
| 20260502032607 | 34 | 223 | 0.0 | 0.0 | 0.00 | 0.00 | 0.00 | 82 | 1024.5 |
| 20260502031607 | 34 | 223 | 0.0 | 0.0 | 0.00 | 0.00 | 0.00 | 82 | 1024.7 |
| 20260502030606 | 34 | 223 | 0.0 | 0.0 | 0.00 | 0.00 | 0.00 | 82 | 1024.2 |
| 20260502025606 | 34 | 223 | 0.0 | 0.0 | 0.00 | 0.00 | 0.00 | 82 | 1024.4 |
| 20260502024606 | 35 | 223 | 0.0 | 0.0 | 0.00 | 0.00 | 0.00 | 82 | 1024.7 |
| 20260502023605 | 35 | 222 | 0.0 | 0.0 | 0.00 | 0.00 | 0.00 | 81 | 1024.7 |
| 20260502022604 | 35 | 222 | 0.0 | 0.0 | 0.00 | 0.00 | 0.00 | 81 | 1024.8 |
| 20260502021604 | 35 | 221 | 0.0 | 1.0 | 0.00 | 0.00 | 0.00 | 81 | 1024.8 |
| 20260502020603 | 35 | 224 | 0.0 | 0.0 | 0.00 | 0.00 | 0.00 | 81 | 1024.9 |
| 20260502015603 | 36 | 224 | 0.0 | 0.0 | 0.00 | 0.00 | 0.00 | 81 | 1024.8 |
| 20260502014602 | 35 | 225 | 0.0 | 0.0 | 0.00 | 0.00 | 0.00 | 81 | 1024.8 |
| 20260502013602 | 35 | 225 | 0.0 | 0.0 | 0.00 | 0.00 | 0.00 | 80 | 1024.8 |
| 20260502012601 | 35 | 225 | 0.0 | 0.0 | 0.00 | 0.00 | 0.00 | 80 | 1024.7 |
| 20260502011601 | 36 | 225 | 0.0 | 0.0 | 0.00 | 0.00 | 0.00 | 80 | 1024.8 |
| 20260502010600 | 36 | 225 | 0.0 | 0.0 | 0.00 | 0.00 | 0.00 | 79 | 1025.2 |
| 20260502005600 | 37 | 225 | 0.0 | 0.0 | 0.00 | 0.00 | 0.00 | 80 | 1025.0 |
| 20260502004559 | 37 | 225 | 0.0 | 0.0 | 0.00 | 0.00 | 0.00 | 79 | 1025.1 |
| 20260502003559 | 37 | 224 | 0.0 | 0.0 | 0.00 | 0.00 | 0.00 | 79 | 1025.0 |
| 20260502002558 | 37 | 225 | 0.0 | 0.0 | 0.00 | 0.00 | 0.00 | 78 | 1025.2 |
| 20260502001558 | 37 | 225 | 0.0 | 0.0 | 0.00 | 0.00 | 0.00 | 78 | 1025.3 |
| 20260502000557 | 38 | 226 | 0.0 | 0.0 | 0.00 | 0.00 | 0.00 | 78 | 1025.3 |
| 20260501235557 | 38 | 223 | 0.0 | 0.0 | 0.00 | 0.00 | 0.00 | 78 | 1025.2 |
| 20260501234556 | 39 | 222 | 0.0 | 1.0 | 0.00 | 0.00 | 0.00 | 77 | 1025.1 |
| 20260501233556 | 38 | 227 | 0.0 | 0.0 | 0.00 | 0.00 | 0.00 | 77 | 1025.4 |
| 20260501232555 | 39 | 230 | 0.0 | 0.0 | 0.00 | 0.00 | 0.00 | 76 | 1025.3 |
| 20260501231555 | 39 | 225 | 0.0 | 0.0 | 0.00 | 0.00 | 0.00 | 76 | 1025.4 |
| 20260501230554 | 38 | 229 | 0.0 | 0.0 | 0.00 | 0.00 | 0.00 | 77 | 1025.5 |
| 20260501225554 | 39 | 233 | 0.0 | 0.0 | 0.00 | 0.00 | 0.00 | 75 | 1025.4 |
| 20260501224553 | 41 | 221 | 0.0 | 0.0 | 0.00 | 0.00 | 0.00 | 75 | 1025.4 |
| 20260501223553 | 41 | 220 | 0.0 | 0.0 | 0.00 | 0.00 | 0.00 | 75 | 1025.4 |
| 20260501222552 | 41 | 219 | 0.0 | 0.0 | 0.00 | 0.00 | 0.00 | 74 | 1025.3 |
| 20260501221552 | 41 | 227 | 0.0 | 0.0 | 0.00 | 0.00 | 0.00 | 73 | 1025.3 |
| 20260501220551 | 41 | 221 | 0.0 | 0.0 | 0.00 | 0.00 | 0.00 | 72 | 1025.4 |
| 20260501215551 | 42 | 221 | 0.0 | 0.0 | 0.00 | 0.00 | 0.00 | 71 | 1025.5 |
| 20260501214550 | 42 | 223 | 0.0 | 0.0 | 0.00 | 0.00 | 0.00 | 71 | 1025.4 |